TimeMDT,TemperatureF,Dew PointF,Humidity,Sea Level PressureIn,VisibilityMPH,Wind Direction,Wind SpeedMPH,Gust SpeedMPH,PrecipitationIn,Events,Conditions,WindDirDegrees,DateUTC
12:53 AM,37.9,26.1,62,30.23,10.0,SSE,4.6,-,N/A,,Partly Cloudy,150,2013-03-14 06:53:00
1:53 AM,37.0,25.0,62,30.23,10.0,SE,6.9,-,N/A,,Clear,140,2013-03-14 07:53:00
2:53 AM,37.9,24.1,57,30.22,10.0,SSW,5.8,-,N/A,,Clear,200,2013-03-14 08:53:00
3:53 AM,37.9,25.0,60,30.19,10.0,SSW,6.9,-,N/A,,Clear,200,2013-03-14 09:53:00
4:53 AM,39.9,23.0,51,30.19,10.0,WSW,8.1,-,N/A,,Partly Cloudy,240,2013-03-14 10:53:00
5:53 AM,41.0,21.9,47,30.22,10.0,South,4.6,-,N/A,,Scattered Clouds,170,2013-03-14 11:53:00
6:53 AM,36.0,24.1,62,30.26,10.0,Calm,Calm,-,N/A,,Scattered Clouds,0,2013-03-14 12:53:00
7:53 AM,37.9,26.1,62,30.28,10.0,ESE,4.6,-,N/A,,Scattered Clouds,120,2013-03-14 13:53:00
8:53 AM,48.9,27.0,43,30.30,10.0,South,4.6,-,N/A,,Scattered Clouds,190,2013-03-14 14:53:00
9:53 AM,55.9,19.9,25,30.26,10.0,Calm,Calm,-,N/A,,Scattered Clouds,0,2013-03-14 15:53:00
11:53 AM,60.1,23.0,24,30.22,10.0,ESE,6.9,-,N/A,,Mostly Cloudy,110,2013-03-14 17:53:00
12:53 PM,63.0,21.0,20,30.21,10.0,Calm,Calm,-,N/A,,Mostly Cloudy,0,2013-03-14 18:53:00
1:53 PM,64.9,21.9,19,30.17,10.0,Variable,4.6,-,N/A,,Mostly Cloudy,0,2013-03-14 19:53:00
2:53 PM,66.9,21.9,18,30.13,10.0,East,8.1,-,N/A,,Mostly Cloudy,90,2013-03-14 20:53:00
3:53 PM,66.9,19.9,17,30.11,10.0,Calm,Calm,-,N/A,,Mostly Cloudy,0,2013-03-14 21:53:00
4:53 PM,66.0,19.9,17,30.11,10.0,WSW,6.9,-,N/A,,Mostly Cloudy,240,2013-03-14 22:53:00
5:53 PM,66.0,15.1,14,30.10,10.0,NW,5.8,-,N/A,,Mostly Cloudy,310,2013-03-14 23:53:00
6:53 PM,61.0,15.1,17,30.14,10.0,NNW,9.2,-,N/A,,Mostly Cloudy,330,2013-03-15 00:53:00
7:53 PM,60.1,12.9,16,30.14,10.0,NW,3.5,-,N/A,,Mostly Cloudy,320,2013-03-15 01:53:00
8:53 PM,55.9,18.0,23,30.12,10.0,WNW,3.5,-,N/A,,Scattered Clouds,290,2013-03-15 02:53:00
9:53 PM,48.9,24.1,38,30.13,10.0,SSW,5.8,-,N/A,,Scattered Clouds,210,2013-03-15 03:53:00
10:53 PM,44.1,24.1,45,30.13,10.0,South,6.9,-,N/A,,Scattered Clouds,190,2013-03-15 04:53:00
11:53 PM,46.0,23.0,40,30.10,10.0,SSW,12.7,-,N/A,,Scattered Clouds,210,2013-03-15 05:53:00